Location: Owatonna
(44.0840°N, 93.2260°W)
Time: 14:23:09
(UTC-06:00)

Tiangong 1 - Visible Passes

Search period start: 22 January 2017 00:00
Search period end: 01 February 2017 00:00
Orbit: 343 x 365 km, 42.8° (Epoch: 22 January)

Date Brightness Start Highest point End Pass type
(mag) Time Alt. Az. Time Alt. Az. Time Alt. Az.
24 Jan 2.8 18:52:22 10° SSW 18:54:18 20° SSE 18:54:18 20° SSE visible
25 Jan 2.9 19:18:17 10° SW 19:19:51 25° SW 19:19:51 25° SW visible
26 Jan 2.5 18:09:17 10° SW 18:11:48 25° SSE 18:13:43 14° ESE visible
26 Jan 4.1 19:44:40 10° WSW 19:45:18 15° WSW 19:45:18 15° WSW visible
27 Jan 1.5 18:35:17 10° WSW 18:38:10 46° SSE 18:39:06 32° ESE visible
28 Jan 1.1 19:01:38 10° WSW 19:04:25 64° SSW 19:04:25 64° SSW visible
29 Jan 1.5 17:52:08 10° WSW 17:55:03 51° SSE 17:57:58 10° E visible
29 Jan 2.9 19:28:02 10° W 19:29:43 29° W 19:29:43 29° W visible
30 Jan 1.0 18:18:25 10° W 18:21:25 68° S 18:23:23 19° E visible
30 Jan 4.3 19:54:28 10° W 19:54:58 14° W 19:54:58 14° W visible
31 Jan 1.2 18:44:46 10° W 18:47:44 62° S 18:48:39 38° ESE visible
